DW5256 Weather Reports


time (UTC)temp
F
wind
direction
speed
knots
gust
knots
rain 1hr
in
rain 24hr
in
rain mn
in
humidity
%
barometer
mb
20260509193535 76 208 0.9 7.0 0.00 0.00 0.00 60 1011.3
20260509192038 75 265 4.3 8.7 0.00 0.00 0.00 61 1011.5
20260509190542 74 274 3.5 10.4 0.00 0.00 0.00 62 1011.6
20260509185031 74 256 2.6 8.7 0.00 0.00 0.00 62 1011.6
20260509183531 74 252 0.9 7.8 0.00 0.00 0.00 63 1011.6
20260509182022 73 268 3.5 7.8 0.00 0.00 0.00 64 1011.7
20260509180534 73 265 1.7 7.0 0.00 0.00 0.00 65 1011.7
20260509175024 72 249 0.0 6.1 0.00 0.00 0.00 66 1011.8
20260509173543 71 276 0.0 7.0 0.00 0.00 0.00 67 1011.8
20260509172028 70 273 0.0 0.0 0.00 0.00 0.00 70 1011.7
20260509170520 68 277 0.9 6.1 0.00 0.00 0.00 73 1011.8
20260509165028 67 279 1.7 6.1 0.00 0.00 0.00 74 1011.7
20260509163517 66 275 0.0 0.0 0.00 0.00 0.00 75 1011.8
20260509162027 65 276 0.0 0.0 0.00 0.00 0.00 77 1011.9
20260509160536 63 276 0.0 0.0 0.00 0.00 0.00 80 1012.0
20260509155044 62 276 0.0 0.0 0.00 0.00 0.00 81 1012.0
20260509153521 62 276 0.0 2.6 0.00 0.00 0.00 82 1012.0
20260509152025 62 276 0.0 0.0 0.00 0.00 0.00 83 1011.9
20260509150534 61 276 0.0 0.0 0.00 0.00 0.00 84 1011.9
20260509145020 60 276 0.0 0.0 0.00 0.00 0.00 84 1011.9
20260509143515 60 276 0.0 0.0 0.00 0.00 0.00 85 1011.9
20260509142027 60 276 0.0 0.0 0.00 0.00 0.00 85 1012.0
20260509140534 60 279 0.0 0.0 0.00 0.00 0.00 85 1012.0
20260509135025 60 279 0.0 0.0 0.00 0.00 0.00 86 1012.0
20260509133519 60 279 0.0 0.0 0.00 0.00 0.00 85 1011.7
20260509132032 60 279 0.0 0.0 0.00 0.00 0.00 86 1011.6
20260509130527 60 279 0.0 0.0 0.00 0.00 0.00 86 1011.7
20260509125041 60 279 0.0 0.0 0.00 0.00 0.00 86 1011.7
20260509123519 60 279 0.0 0.0 0.00 0.00 0.00 86 1011.8
20260509122015 60 279 0.0 0.0 0.00 0.00 0.00 86 1011.7
20260509120533 60 280 0.0 0.0 0.00 0.00 0.00 86 1011.5
20260509115030 60 280 0.0 0.0 0.00 0.00 0.00 86 1011.5
20260509113529 60 280 0.0 0.0 0.00 0.00 0.00 86 1011.5
20260509112025 60 280 0.0 0.0 0.00 0.00 0.00 86 1011.6
20260509110525 60 280 0.0 0.0 0.00 0.00 0.00 86 1011.7
20260509105043 60 280 0.0 0.0 0.00 0.00 0.00 86 1011.6
20260509103519 60 280 0.0 0.0 0.00 0.00 0.00 86 1011.7
20260509102016 61 280 0.0 0.0 0.00 0.00 0.00 85 1011.6
20260509100533 61 280 0.0 0.0 0.00 0.00 0.00 85 1011.7
20260509095037 61 280 0.0 0.0 0.00 0.00 0.00 85 1011.8
20260509093532 61 280 0.0 0.0 0.00 0.00 0.00 85 1011.9
20260509092027 61 280 0.0 0.0 0.00 0.00 0.00 86 1012.0
20260509090523 61 280 0.0 0.0 0.00 0.00 0.00 85 1012.1
20260509085019 61 280 0.0 0.0 0.00 0.00 0.00 85 1012.2
20260509083517 61 282 0.0 0.0 0.00 0.00 0.00 85 1012.2
20260509082013 61 284 0.0 0.0 0.00 0.00 0.00 86 1012.3
20260509080525 61 284 0.0 0.0 0.00 0.00 0.00 86 1012.3
20260509075042 61 284 0.0 0.0 0.00 0.00 0.00 86 1012.6
20260509073536 60 284 0.0 0.0 0.00 0.00 0.00 86 1012.5
20260509072048 60 284 0.0 0.0 0.00 0.00 0.00 86 1012.7
20260509070542 61 284 0.0 0.0 0.00 0.00 0.00 86 1012.9
20260509065027 60 284 0.0 0.0 0.00 0.00 0.00 86 1013.0
20260509063544 60 284 0.0 0.0 0.00 0.00 0.00 85 1013.0
20260509062021 60 284 0.0 0.0 0.00 0.00 0.00 85 1012.9
20260509060545 60 284 0.0 0.0 0.00 0.00 0.00 85 1013.0
20260509055041 60 284 0.0 0.0 0.00 0.00 0.00 85 1013.1
20260509053516 60 284 0.0 0.0 0.00 0.00 0.00 85 1013.2
20260509052030 60 284 0.0 0.0 0.00 0.00 0.00 84 1013.1
20260509050527 61 284 0.0 0.0 0.00 0.00 0.00 84 1013.2
20260509045023 61 284 0.0 0.0 0.00 0.00 0.00 84 1013.1
20260509043525 61 284 0.0 0.0 0.00 0.00 0.00 83 1012.9
20260509042038 61 284 0.0 0.0 0.00 0.00 0.00 83 1012.9
20260509040524 62 282 0.0 0.0 0.00 0.00 0.00 82 1012.9
20260509035018 62 279 0.0 5.2 0.00 0.00 0.00 81 1012.7
20260509033517 63 276 0.0 3.5 0.00 0.00 0.00 81 1012.5
20260509032053 63 277 0.0 2.6 0.00 0.00 0.00 80 1012.4
20260509030530 64 270 0.0 0.0 0.00 0.00 0.00 79 1012.4
20260509025026 65 272 0.9 5.2 0.00 0.00 0.00 77 1012.1
20260509023522 66 263 0.0 5.2 0.00 0.00 0.00 76 1011.9
20260509022018 67 268 0.0 6.1 0.00 0.00 0.00 74 1012.0
20260509020515 68 257 0.9 7.0 0.00 0.00 0.00 73 1011.8
20260509015013 69 254 0.9 7.8 0.00 0.00 0.00 71 1011.7
20260509013534 70 287 0.9 6.1 0.00 0.00 0.00 69 1011.8
20260509012013 71 291 1.7 6.1 0.00 0.00 0.00 68 1011.8
20260509010541 71 274 0.0 6.1 0.00 0.00 0.00 68 1011.7
20260509005017 72 298 0.0 8.7 0.00 0.00 0.00 67 1011.7
20260509003533 73 273 0.9 7.8 0.00 0.00 0.00 66 1011.8
20260509002053 72 300 0.9 6.1 0.00 0.00 0.00 66 1011.8
20260509000533 72 275 0.0 7.0 0.00 0.00 0.00 67 1011.8
20260508235032 73 298 0.9 7.0 0.00 0.00 0.00 65 1011.9
20260508233530 72 286 2.6 8.7 0.00 0.00 0.00 66 1012.0
20260508232027 73 284 3.5 8.7 0.00 0.00 0.00 66 1012.1
20260508230524 74 313 3.5 9.6 0.00 0.00 0.00 64 1012.0
20260508225021 73 269 0.9 12.2 0.00 0.00 0.00 65 1012.3
20260508223540 73 291 4.3 9.6 0.00 0.00 0.00 64 1012.2
20260508222048 74 228 1.7 9.6 0.00 0.00 0.00 63 1012.3
20260508220532 76 272 1.7 11.3 0.00 0.00 0.00 61 1012.5
20260508215026 76 209 2.6 8.7 0.00 0.00 0.00 60 1012.7
20260508213525 77 225 3.5 11.3 0.00 0.00 0.00 59 1012.6
20260508212016 77 224 0.0 8.7 0.00 0.00 0.00 60 1012.6
20260508210535 77 250 0.0 11.3 0.00 0.00 0.00 60 1012.5
20260508205029 77 269 0.9 7.8 0.00 0.00 0.00 59 1012.7
20260508203524 77 225 0.9 8.7 0.00 0.00 0.00 60 1012.7
20260508202019 76 244 2.6 8.7 0.00 0.00 0.00 61 1012.7
20260508200536 76 269 3.5 11.3 0.00 0.00 0.00 61 1012.8
20260508195029 76 275 3.5 10.4 0.00 0.00 0.00 61 1012.9